N2OCK Weather Reports


time (UTC)temp
C
wind
direction
speed
KPH
gust
KPH
rain 1hr
cm
rain 24hr
cm
rain mn
cm
humidity
%
barometer
mb
20260506122437 16 256 3.2 11.3 0.00 0.00 0.00 86 1011.1
20260506121936 15 199 11.3 16.1 0.00 0.00 0.00 86 1011.4
20260506121432 15 239 8.0 12.9 0.00 0.00 0.00 86 1011.3
20260506120929 15 190 3.2 11.3 0.00 0.00 0.00 87 1011.2
20260506120426 15 199 4.8 12.9 0.00 0.00 0.00 86 1011.1
20260506115924 16 248 3.2 11.3 0.00 0.00 0.00 86 1011.2
20260506115422 15 200 3.2 16.1 0.00 0.00 0.00 87 1011.1
20260506114920 15 193 6.4 12.9 0.00 0.00 0.00 87 1011.1
20260506114417 15 178 3.2 16.1 0.00 0.00 0.00 87 1011.0
20260506113916 15 187 6.4 12.9 0.00 0.00 0.00 88 1011.0
20260506113413 15 177 4.8 16.1 0.00 0.00 0.00 88 1011.0
20260506112909 15 258 6.4 11.3 0.00 0.00 0.00 89 1011.0
20260506112407 15 204 6.4 14.5 0.00 0.00 0.00 89 1011.0
20260506111904 15 250 3.2 11.3 0.00 0.00 0.00 90 1011.2
20260506111402 14 248 6.4 14.5 0.00 0.00 0.00 91 1011.1
20260506110859 14 251 8.0 17.7 0.00 0.00 0.00 91 1011.1
20260506110356 13 244 8.0 14.5 0.00 0.00 0.00 92 1011.0
20260506105853 13 242 4.8 9.7 0.00 0.00 0.00 93 1011.3
20260506105349 13 209 4.8 6.4 0.00 0.00 0.00 93 1011.4
20260506104847 13 249 6.4 11.3 0.00 0.00 0.00 93 1011.0
20260506104345 13 248 6.4 16.1 0.00 0.00 0.00 93 1011.0
20260506103842 13 188 6.4 11.3 0.00 0.00 0.00 93 1011.0
20260506103339 13 220 4.8 11.3 0.00 0.00 0.00 93 1011.1
20260506102836 13 205 4.8 9.7 0.00 0.00 0.00 94 1011.1
20260506102334 13 198 6.4 12.9 0.00 0.00 0.00 94 1011.0
20260506101831 13 173 4.8 12.9 0.00 0.00 0.00 94 1011.1
20260506101327 13 241 3.2 11.3 0.00 0.00 0.00 94 1010.9
20260506100825 13 190 6.4 12.9 0.00 0.00 0.00 94 1011.1
20260506100324 13 210 3.2 11.3 0.00 0.00 0.00 94 1011.2
20260506095822 13 231 3.2 12.9 0.00 0.00 0.00 94 1011.0
20260506095318 13 167 4.8 6.4 0.00 0.00 0.00 94 1011.1
20260506094815 13 220 4.8 11.3 0.00 0.00 0.00 94 1011.1
20260506094314 13 271 1.6 14.5 0.00 0.00 0.00 94 1011.0
20260506093812 13 167 9.7 20.9 0.00 0.00 0.00 94 1010.9
20260506093308 13 207 6.4 9.7 0.00 0.00 0.00 94 1010.9
20260506092807 13 204 4.8 11.3 0.00 0.00 0.00 94 1010.9
20260506092306 13 229 6.4 16.1 0.00 0.00 0.00 94 1011.1
20260506091801 13 195 4.8 11.3 0.00 0.00 0.00 94 1010.9
20260506091258 13 221 6.4 11.3 0.00 0.00 0.00 94 1011.1
20260506090756 13 240 4.8 11.3 0.00 0.00 0.00 93 1011.1
20260506090253 13 186 4.8 9.7 0.00 0.00 0.00 93 1011.1
20260506085750 13 171 8.0 11.3 0.00 0.00 0.00 93 1011.2
20260506085246 13 179 3.2 9.7 0.00 0.00 0.00 93 1011.2
20260506084743 13 251 3.2 11.3 0.00 0.00 0.00 93 1011.4
20260506084239 13 198 3.2 9.7 0.00 0.00 0.00 93 1011.2
20260506083736 13 244 4.8 9.7 0.00 0.00 0.00 93 1011.1
20260506083234 13 191 1.6 6.4 0.00 0.00 0.00 92 1011.4
20260506082731 13 188 4.8 11.3 0.00 0.00 0.00 92 1011.4
20260506082226 13 235 3.2 9.7 0.00 0.00 0.00 92 1011.4
20260506081724 13 251 4.8 11.3 0.00 0.00 0.00 92 1011.5
20260506081221 13 225 3.2 9.7 0.00 0.00 0.00 92 1011.4
20260506080720 13 242 0.0 9.7 0.00 0.00 0.00 92 1011.4
20260506080216 13 241 3.2 9.7 0.00 0.00 0.00 92 1011.4
20260506073159 13 215 14.5 22.5 0.00 0.00 0.00 91 1011.6
20260506072651 13 214 9.7 20.9 0.00 0.00 0.00 91 1011.6
20260506072149 13 145 6.4 11.3 0.00 0.00 0.00 91 1011.7
20260506071646 13 205 8.0 14.5 0.00 0.00 0.00 90 1011.6
20260506071144 13 194 8.0 14.5 0.00 0.00 0.00 90 1011.7
20260506070640 13 252 4.8 11.3 0.00 0.00 0.00 90 1011.8
20260506070137 13 225 11.3 16.1 0.00 0.00 0.00 90 1011.7
20260506062115 13 215 9.7 17.7 0.00 0.00 0.00 89 1011.5
20260506061610 13 239 9.7 16.1 0.00 0.00 0.00 89 1011.5
20260506061108 13 239 4.8 9.7 0.00 0.00 0.00 89 1011.4
20260506060607 14 187 4.8 11.3 0.00 0.00 0.00 89 1011.4
20260506051035 14 261 8.0 11.3 0.00 0.00 0.00 86 1011.7
20260506050533 14 228 8.0 12.9 0.00 0.00 0.00 86 1011.7
20260506045024 15 296 6.4 14.5 0.00 0.00 0.00 85 1011.8
20260506044521 15 229 4.8 16.1 0.00 0.00 0.00 85 1011.8
20260506044018 15 283 4.8 16.1 0.00 0.00 0.00 85 1012.0
20260506043515 15 252 4.8 17.7 0.00 0.00 0.00 85 1012.0
20260506043014 15 203 3.2 24.1 0.00 0.00 0.00 84 1012.1
20260506042512 15 184 8.0 22.5 0.00 0.00 0.00 84 1012.1
20260506042010 15 238 8.0 12.9 0.00 0.00 0.00 84 1011.9
20260506041508 15 161 6.4 12.9 0.00 0.00 0.00 84 1012.0
20260506041005 15 197 9.7 16.1 0.00 0.00 0.00 83 1011.9
20260506040503 15 204 8.0 20.9 0.00 0.00 0.00 83 1012.0
20260506035958 15 248 8.0 12.9 0.00 0.00 0.00 82 1012.0
20260506035455 15 258 6.4 11.3 0.00 0.00 0.00 82 1012.0
20260506034952 15 220 4.8 22.5 0.00 0.00 0.00 82 1011.8
20260506034450 15 241 3.2 16.1 0.00 0.00 0.00 82 1011.9
20260506033946 15 105 8.0 12.9 0.00 0.00 0.00 82 1011.9
20260506033444 15 220 8.0 14.5 0.00 0.00 0.00 82 1011.9
20260506032940 15 4 6.4 11.3 0.00 0.00 0.00 82 1011.8
20260506032438 15 257 9.7 16.1 0.00 0.00 0.00 82 1012.0
20260506031934 15 226 4.8 16.1 0.00 0.00 0.00 82 1011.8
20260506031431 15 242 9.7 12.9 0.00 0.00 0.00 82 1011.8
20260506030929 15 180 4.8 17.7 0.00 0.00 0.00 82 1011.8
20260506030427 15 175 6.4 17.7 0.00 0.00 0.00 82 1012.0
20260506025923 15 237 9.7 12.9 0.00 0.00 0.00 82 1011.9
20260506025420 16 263 4.8 17.7 0.00 0.00 0.00 82 1012.1
20260506024917 16 167 9.7 25.7 0.00 0.00 0.00 82 1012.0
20260506024414 16 246 8.0 22.5 0.00 0.00 0.00 81 1011.8
20260506023910 16 321 8.0 17.7 0.00 0.00 0.00 81 1011.7
20260506023407 16 297 16.1 22.5 0.00 0.00 0.00 81 1011.6
20260506022904 16 142 11.3 22.5 0.00 0.00 0.00 81 1011.8
20260506022401 16 202 8.0 14.5 0.00 0.00 0.00 81 1011.7
20260506021859 16 207 6.4 22.5 0.00 0.00 0.00 80 1012.0
20260506021356 16 206 9.7 27.4 0.00 0.00 0.00 80 1011.9
20260506020853 16 208 6.4 20.9 0.00 0.00 0.00 79 1011.9
20260506020351 16 240 6.4 16.1 0.00 0.00 0.00 79 1011.8
20260506015848 16 197 12.9 16.1 0.00 0.00 0.00 78 1011.7
20260506015345 16 167 8.0 14.5 0.00 0.00 0.00 77 1011.9
20260506014842 16 302 6.4 25.7 0.00 0.00 0.00 76 1011.7
20260506014339 16 191 8.0 16.1 0.00 0.00 0.00 76 1011.8
20260506013835 16 170 6.4 17.7 0.00 0.00 0.00 75 1011.6
20260506013333 16 236 9.7 12.9 0.00 0.00 0.00 75 1011.7
20260506012829 16 194 6.4 25.7 0.00 0.00 0.00 74 1011.4
20260506012326 17 262 12.9 35.4 0.00 0.00 0.00 74 1011.5
20260506011824 17 179 12.9 25.7 0.00 0.00 0.00 73 1011.4
20260506011320 17 174 9.7 22.5 0.00 0.00 0.00 73 1011.2
20260506010818 17 253 6.4 30.6 0.00 0.00 0.00 72 1011.2
20260506010315 17 273 4.8 24.1 0.00 0.00 0.00 72 1011.0
20260506005812 17 215 6.4 14.5 0.00 0.00 0.00 72 1011.1
20260506005309 17 208 8.0 16.1 0.00 0.00 0.00 72 1011.1
20260506004805 17 230 6.4 17.7 0.00 0.00 0.00 72 1011.0
20260506004303 17 244 8.0 20.9 0.00 0.00 0.00 71 1011.1
20260506003759 17 226 6.4 22.5 0.00 0.00 0.00 72 1010.9
20260506003256 17 240 4.8 20.9 0.00 0.00 0.00 72 1010.9
20260506002751 17 207 16.1 20.9 0.00 0.00 0.00 72 1011.1
20260506002248 17 165 8.0 12.9 0.00 0.00 0.00 72 1010.7
20260506001743 17 218 8.0 20.9 0.00 0.00 0.00 72 1010.7
20260506001241 17 247 9.7 17.7 0.00 0.00 0.00 72 1010.8
20260506000738 17 237 9.7 22.5 0.00 0.00 0.00 72 1010.5
20260506000235 17 235 11.3 24.1 0.00 0.00 0.00 72 1010.4
20260505235732 17 177 11.3 22.5 0.00 0.00 0.00 72 1010.6
20260505235230 17 239 6.4 14.5 0.00 0.00 0.00 72 1010.5
20260505234727 17 285 11.3 20.9 0.00 0.00 0.00 72 1010.4
20260505234224 17 230 9.7 20.9 0.00 0.00 0.00 72 1010.3
20260505233720 17 171 9.7 22.5 0.00 0.00 0.00 72 1010.2
20260505233219 17 202 11.3 16.1 0.00 0.00 0.00 72 1010.4
20260505232715 17 92 8.0 20.9 0.00 0.00 0.00 71 1010.0
20260505232213 17 263 6.4 22.5 0.00 0.00 0.00 70 1009.9
20260505231709 17 235 3.2 16.1 0.00 0.00 0.00 70 1010.0
20260505231209 17 245 14.5 24.1 0.00 0.00 0.00 69 1009.9
20260505230706 18 220 6.4 14.5 0.00 0.00 0.00 69 1009.6
20260505230203 18 221 6.4 20.9 0.00 0.00 0.00 68 1009.7
20260505225659 18 274 6.4 22.5 0.00 0.00 0.00 67 1009.7
20260505225156 18 219 8.0 12.9 0.00 0.00 0.00 67 1009.8
20260505224651 18 234 8.0 22.5 0.00 0.00 0.00 67 1009.9
20260505224150 18 243 6.4 17.7 0.00 0.00 0.00 68 1009.8
20260505223647 18 187 8.0 11.3 0.00 0.00 0.00 68 1009.6
20260505223142 18 262 6.4 16.1 0.00 0.00 0.00 67 1009.7
20260505222638 18 218 6.4 14.5 0.00 0.00 0.00 66 1009.8
20260505222135 18 240 4.8 6.4 0.00 0.00 0.00 66 1009.8
20260505221632 18 213 6.4 24.1 0.00 0.00 0.00 66 1009.6
20260505221128 18 217 3.2 17.7 0.00 0.00 0.00 66 1009.8
20260505220626 18 227 14.5 17.7 0.00 0.00 0.00 66 1009.4
20260505220124 18 210 9.7 29.0 0.00 0.00 0.00 66 1009.4
20260505215621 18 205 14.5 20.9 0.00 0.00 0.00 65 1009.6
20260505215119 19 215 6.4 24.1 0.00 0.00 0.00 65 1009.7
20260505214617 19 247 11.3 17.7 0.00 0.00 0.00 64 1009.5
20260505214114 19 248 3.2 22.5 0.00 0.00 0.00 65 1009.6
20260505213612 19 193 11.3 20.9 0.00 0.00 0.00 65 1009.3
20260505213108 19 160 12.9 16.1 0.00 0.00 0.00 64 1009.5
20260505212604 19 252 9.7 20.9 0.00 0.00 0.00 65 1009.3
20260505212102 19 158 6.4 16.1 0.00 0.00 0.00 65 1009.3
20260505211558 19 218 8.0 16.1 0.00 0.00 0.00 65 1009.2
20260505211056 19 195 8.0 12.9 0.00 0.00 0.00 65 1009.2
20260505210552 19 204 9.7 24.1 0.00 0.00 0.00 65 1009.3
20260505210049 20 159 4.8 17.7 0.00 0.00 0.00 65 1009.2
20260505205547 20 193 6.4 12.9 0.00 0.00 0.00 64 1009.0
20260505205044 20 197 4.8 16.1 0.00 0.00 0.00 65 1009.2
20260505204542 20 219 3.2 14.5 0.00 0.00 0.00 65 1009.3
20260505204039 20 222 8.0 17.7 0.00 0.00 0.00 65 1009.2
20260505203535 20 197 11.3 16.1 0.00 0.00 0.00 65 1009.1
20260505203033 20 231 9.7 14.5 0.00 0.00 0.00 64 1009.3
20260505202528 20 207 4.8 22.5 0.00 0.00 0.00 65 1009.3
20260505202024 20 215 6.4 9.7 0.00 0.00 0.00 64 1009.5
20260505201522 20 151 4.8 11.3 0.00 0.00 0.00 64 1009.4
20260505201019 20 244 1.6 12.9 0.00 0.00 0.00 65 1009.4
20260505200517 20 212 1.6 6.4 0.00 0.00 0.00 64 1009.4
20260505200014 20 243 9.7 16.1 0.00 0.00 0.00 64 1009.5
20260505195509 20 164 3.2 20.9 0.00 0.00 0.00 64 1009.6
20260505195007 20 245 6.4 20.9 0.00 0.00 0.00 64 1009.6
20260505194504 20 219 6.4 11.3 0.00 0.00 0.00 63 1009.8
20260505194004 20 267 4.8 17.7 0.00 0.00 0.00 64 1009.6
20260505193502 20 203 9.7 22.5 0.00 0.00 0.00 63 1009.7
20260505192959 20 190 11.3 12.9 0.00 0.00 0.00 63 1009.9
20260505192458 20 208 6.4 16.1 0.00 0.00 0.00 63 1010.1
20260505191955 20 197 9.7 16.1 0.00 0.00 0.00 63 1010.1
20260505191453 21 190 9.7 12.9 0.00 0.00 0.00 62 1010.2
20260505190950 20 187 3.2 16.1 0.00 0.00 0.00 64 1010.1
20260505190445 20 189 12.9 17.7 0.00 0.00 0.00 64 1010.3
20260505185941 20 229 4.8 11.3 0.00 0.00 0.00 65 1010.5
20260505185438 20 204 4.8 14.5 0.00 0.00 0.00 66 1010.3
20260505184934 21 214 3.2 11.3 0.00 0.00 0.00 65 1010.6
20260505184431 20 238 3.2 9.7 0.00 0.00 0.00 64 1010.5
20260505183928 21 213 6.4 17.7 0.00 0.00 0.00 64 1010.5
20260505183425 21 297 8.0 14.5 0.00 0.00 0.00 63 1010.7
20260505182922 21 170 6.4 11.3 0.00 0.00 0.00 63 1010.6
20260505182419 21 226 3.2 11.3 0.00 0.00 0.00 64 1010.5
20260505181915 21 219 3.2 12.9 0.00 0.00 0.00 64 1010.7
20260505181412 21 196 3.2 4.8 0.00 0.00 0.00 65 1010.5
20260505180909 20 229 4.8 6.4 0.00 0.00 0.00 64 1010.8
20260505180406 21 250 4.8 14.5 0.00 0.00 0.00 66 1010.9
20260505175902 21 239 3.2 11.3 0.00 0.00 0.00 64 1010.8
20260505175358 20 225 1.6 11.3 0.00 0.00 0.00 66 1010.8
20260505174855 20 173 12.9 16.1 0.00 0.00 0.00 65 1011.0
20260505174353 20 187 8.0 12.9 0.00 0.00 0.00 67 1010.9
20260505173848 20 251 11.3 14.5 0.00 0.00 0.00 66 1010.8
20260505173345 20 216 6.4 14.5 0.00 0.00 0.00 67 1010.9
20260505172842 20 201 9.7 11.3 0.00 0.00 0.00 67 1011.0
20260505172340 20 183 3.2 11.3 0.00 0.00 0.00 67 1011.0
20260505171839 20 222 1.6 14.5 0.00 0.00 0.00 69 1011.0
20260505171337 20 244 9.7 14.5 0.00 0.00 0.00 66 1011.0
20260505170833 20 252 8.0 12.9 0.00 0.00 0.00 65 1011.0
20260505170330 21 210 3.2 14.5 0.00 0.00 0.00 65 1011.0
20260505165825 21 259 0.0 11.3 0.00 0.00 0.00 64 1011.1
20260505165321 21 217 3.2 6.4 0.00 0.00 0.00 65 1011.2
20260505164816 21 171 4.8 14.5 0.00 0.00 0.00 66 1011.2
20260505164314 21 246 1.6 6.4 0.00 0.00 0.00 65 1011.2
20260505163812 21 183 1.6 6.4 0.00 0.00 0.00 67 1011.3
20260505163311 20 238 6.4 11.3 0.00 0.00 0.00 65 1011.4
20260505162808 20 274 6.4 9.7 0.00 0.00 0.00 68 1011.4
20260505162306 20 196 3.2 9.7 0.00 0.00 0.00 67 1011.3
20260505161801 21 189 1.6 11.3 0.00 0.00 0.00 65 1011.3
20260505161259 21 231 0.0 3.2 0.00 0.00 0.00 65 1011.3
20260505160756 21 255 6.4 11.3 0.00 0.00 0.00 63 1011.6
20260505160254 21 206 3.2 12.9 0.00 0.00 0.00 65 1011.6
20260505153232 20 210 6.4 14.5 0.00 0.00 0.00 66 1011.6
20260505152729 20 175 0.0 9.7 0.00 0.00 0.00 65 1011.9
20260505152226 20 178 3.2 17.7 0.00 0.00 0.00 66 1011.8
20260505151720 20 212 8.0 14.5 0.00 0.00 0.00 65 1011.8
20260505151218 20 188 4.8 6.4 0.00 0.00 0.00 66 1012.0
20260505150715 20 349 0.0 9.7 0.00 0.00 0.00 67 1012.0
20260505150212 20 227 4.8 9.7 0.00 0.00 0.00 68 1012.1
20260505140645 19 218 6.4 9.7 0.00 0.00 0.00 70 1012.0
20260505140142 19 190 3.2 9.7 0.00 0.00 0.00 69 1011.7
20260505130105 17 193 1.6 4.8 0.00 0.00 0.00 75 1011.6
20260505124555 16 205 6.4 9.7 0.00 0.00 0.00 78 1011.5
20260505124051 16 256 4.8 6.4 0.00 0.00 0.00 79 1011.6
20260505123548 15 216 1.6 9.7 0.00 0.00 0.00 81 1011.5
20260505123044 15 210 0.0 1.6 0.00 0.00 0.00 82 1011.6